This demonstration page uses our WeatherBlox Daily Observations layout. Learn more.

Left ArrowRight Arrow

40.97296, -117.73568

Hourly Observations for May 21, 2022

Temp ( °F °C ) Dew Point ( °F °C ) Humidity (%) Winds ( mph kmh ) Pressure ( in mb ) Visibility ( mi km ) Precip ( " mm )
12:56 am 00:56 Clear 47 8.3 18 -7.8 31 31 NE 15 24 29.94 1014 10 16 0.00 0.00
1:56 am 01:56 Mostly Cloudy 45 7.2 18 -7.8 34 34 NE 13 20 29.93 1014 10 16 0.00 0.00
2:56 am 02:56 Clear 43 6.1 18 -7.8 37 37 ENE 13 20 29.93 1014 10 16 0.00 0.00
3:56 am 03:56 Clear 41 5 18 -7.8 39 39 undefined N/A 29.95 1014 10 16 0.00 0.00
4:56 am 04:56 Clear 38 3.3 18 -7.8 44 44 E 8 13 29.97 1015 10 16 0.00 0.00
5:56 am 05:56 Sunny 40 4.4 18 -7.8 41 41 E 8 13 29.98 1015 10 16 0.00 0.00
6:56 am 06:56 Sunny 38 3.3 19 -7.2 46 46 ESE 5 7 30.01 1016 10 16 0.00 0.00
7:56 am 07:56 Sunny 49 9.4 20 -6.7 32 32 ENE 13 20 29.99 1016 10 16 0.00 0.00
8:56 am 08:56 Sunny 55 12.8 20 -6.7 25 25 NE 9 15 29.99 1016 10 16 0.00 0.00
9:56 am 09:56 Sunny 59 15 19 -7.2 21 21 ENE 7 11 29.98 1015 10 16 0.00 0.00
10:56 am 10:56 Sunny 62 16.7 16 -8.9 17 17 VRB 3 6 29.98 1015 10 16 0.00 0.00
11:56 am 11:56 Mostly Sunny 65 18.3 16 -8.9 15 15 Calm 29.97 1015 10 16 0.00 0.00
12:56 pm 12:56 Sunny 64 17.8 14 -10 14 14 VRB 3 6 29.97 1015 10 16 0.00 0.00
1:56 pm 13:56 Sunny 66 18.9 12 -11.1 12 12 undefined N/A 29.96 1015 10 16 0.00 0.00
2:56 pm 14:56 Sunny 67 19.4 12 -11.1 12 12 W 8 13 29.96 1015 10 16 0.00 0.00
3:56 pm 15:56 Partly Cloudy 68 20 12 -11.1 11 11 N 8 13 29.96 1014 10 16 0.00 0.00
4:56 pm 16:56 Mostly Sunny 68 20 10 -12.2 10 10 N 6 9 29.96 1015 10 16 0.00 0.00
5:56 pm 17:56 Sunny 68 20 10 -12.2 10 10 N 9 15 29.96 1015 10 16 0.00 0.00
6:56 pm 18:56 Sunny 66 18.9 11 -11.7 11 11 N 8 13 29.97 1015 10 16 0.00 0.00
7:56 pm 19:56 Sunny 62 16.7 12 -11.1 14 14 NNE 3 6 29.96 1015 10 16 0.00 0.00
8:56 pm 20:56 Clear 55 12.8 15 -9.4 20 20 ENE 6 9 29.98 1015 10 16 0.00 0.00
9:56 pm 21:56 Clear 45 7.2 15 -9.4 30 30 NNW 5 7 30.02 1017 10 16 0.00 0.00
10:56 pm 22:56 Mostly Clear 51 10.6 16 -8.9 25 25 NE 8 13 30.00 1016 10 16 0.00 0.00
11:56 pm 23:56 Clear 39 3.9 14 -10 36 36 ESE 7 11 30.02 1017 10 16 0.00 0.00

Powered by AerisWeather